Theta_e
346 348 346 346 346 347 345 346 345 345 347 346 346 348 350 348 348 349 349 349 348 348 348 349 350 350 349 349 350 349 349 348 345 347 348 348 347 346 344 342 349 350 349
345 347 348 347 346 346 344 346 345 348 347 346 347 349 349 348 348 348 348 348 350 351 350 349 349 349 348 349 351 350 349 350 347 344 346 348 348 347 341 343 349 349 347
347 346 347 347 347 347 346 345 348 349 347 345 348 347 347 346 347 347 349 350 349 351 351 350 349 350 350 350 349 350 351 350 350 349 348 347 347 346 344 344 348 350 349
349 348 348 348 348 347 345 345 345 347 348 346 347 348 347 347 347 348 348 349 350 350 350 351 351 350 350 349 349 349 349 350 349 348 349 348 348 347 347 347 345 346 345
349 349 348 348 349 348 348 347 347 347 347 348 349 348 349 349 348 349 350 349 349 350 350 351 351 350 350 349 350 349 350 349 348 348 347 348 348 348 348 348 347 347 346
349 349 349 347 348 349 348 348 348 350 348 348 348 348 348 349 349 349 349 350 350 350 349 349 349 349 350 349 349 350 349 349 349 348 348 347 348 348 347 347 347 346 345
349 349 350 349 349 351 350 350 349 350 349 347 346 344 346 348 350 350 349 348 348 349 348 348 348 348 349 349 349 348 349 349 349 349 349 349 348 348 347 346 346 346 346
350 350 350 351 351 351 350 348 349 350 350 349 350 350 349 349 350 350 349 347 345 345 347 348 349 348 348 347 348 348 348 347 348 348 349 349 348 348 348 348 347 346 345
351 351 351 350 351 351 350 350 349 351 351 352 351 351 351 350 349 349 349 349 348 347 347 346 348 347 346 347 348 347 346 346 346 347 349 348 349 350 350 349 348 346 344
351 352 352 352 350 351 351 349 350 351 351 351 350 347 345 344 345 345 345 345 345 346 347 348 347 346 345 346 345 345 346 346 346 346 347 347 347 348 349 350 349 347 345
351 351 352 351 351 350 351 351 352 352 351 347 344 345 344 342 341 341 342 343 343 344 345 346 345 344 345 344 344 344 344 345 345 345 344 344 346 347 347 348 348 347 346
351 351 351 352 352 352 353 353 353 351 347 345 346 344 340 342 342 342 343 342 343 342 342 345 344 341 340 340 340 340 341 341 340 340 340 341 341 341 344 344 344 343 344
352 352 353 354 355 355 354 352 348 346 345 343 341 340 341 341 339 336 338 344 346 346 345 344 340 339 336 334 332 331 330 336 339 338 339 338 339 340 340 340 340 340 339
352 353 355 355 355 354 351 347 345 343 342 342 342 343 343 340 337 336 337 342 343 342 340 338 337 336 334 332 330 330 329 331 337 340 339 339 339 338 338 338 337 337 336
354 355 354 354 354 351 348 346 344 343 342 343 344 342 339 337 335 334 335 336 335 333 331 330 329 329 328 328 328 328 328 328 335 339 339 339 339 336 334 334 334 333 332
354 353 352 351 347 345 344 344 344 345 345 344 342 339 337 336 334 332 330 330 329 329 328 327 326 326 325 326 326 328 329 332 340 339 339 338 335 332 331 330 330 329 327
353 351 348 344 343 344 345 346 345 344 343 341 338 336 335 333 332 330 330 329 328 326 325 324 324 325 326 326 328 333 331 334 337 335 333 331 330 329 328 328 326 325 322
351 348 344 344 345 347 346 343 345 343 335 333 334 334 333 332 330 330 329 328 326 325 323 324 325 329 329 329 331 332 331 332 331 329 329 328 327 326 325 325 324 322 319
344 344 346 347 344 340 335 333 332 332 331 330 330 331 332 332 330 329 328 327 326 325 324 325 326 329 329 329 328 327 328 328 327 326 326 325 324 323 323 323 322 320 318
345 346 345 342 335 334 333 331 330 331 331 332 332 331 331 330 329 329 327 327 326 325 324 324 326 326 326 325 325 325 325 324 324 323 322 322 321 321 321 321 320 319 319
338 339 337 334 332 331 330 330 331 331 330 330 330 330 331 330 330 328 327 325 325 325 325 325 324 324 324 323 323 323 322 322 321 321 320 320 320 319 320 320 320 319 319
340 337 334 332 330 329 331 330 330 330 330 329 329 330 331 330 329 327 326 326 325 325 325 324 323 322 322 322 321 321 320 319 319 319 318 318 318 319 320 320 320 319 319
339 337 336 333 330 331 330 329 329 328 328 329 329 329 330 329 327 327 326 326 326 325 322 322 322 321 320 320 320 319 319 319 318 318 318 318 318 319 320 320 319 319 319
337 337 337 334 331 331 330 329 328 328 329 330 329 329 328 327 327 327 326 326 326 324 321 321 320 320 319 320 319 319 318 318 318 318 319 319 319 319 320 320 319 319 319
337 338 337 334 331 330 329 329 329 329 330 330 329 328 328 328 328 327 326 326 325 324 323 321 321 321 320 318 318 319 319 319 319 319 320 320 320 320 319 318 317 317 318
340 338 336 336 331 329 329 329 329 330 329 330 328 327 329 328 328 328 328 326 326 324 324 323 321 320 320 318 317 316 316 317 317 318 318 318 318 317 317 316 316 318 318
Wind_Speed
36 35 32 30 28 24 20 17 18 15 16 14 13 13 22 22 18 15 14 13 13 12 11 9 11 11 11 11 11 11 11 11 7 6 10 9 15 16 15 16 17 21 21
37 36 34 31 30 27 25 20 17 18 17 15 13 12 19 19 18 17 17 16 17 17 14 13 14 15 13 10 11 12 11 11 11 9 8 13 14 14 13 13 14 17 18
32 34 34 33 30 29 26 25 22 20 18 19 18 18 18 19 21 19 19 19 19 18 17 16 16 16 16 15 14 14 13 12 13 12 11 11 13 14 12 14 16 17 17
32 32 35 34 32 30 29 27 24 23 21 20 21 21 20 20 20 20 20 20 19 19 19 18 18 18 18 19 17 16 15 14 16 15 15 15 11 12 15 14 17 19 20
33 32 34 33 32 29 28 26 24 23 22 21 21 20 21 20 19 19 19 19 19 18 19 18 19 19 20 19 19 17 16 15 17 16 15 14 16 14 14 17 20 20 21
34 31 32 31 31 29 26 23 23 22 19 19 21 20 22 23 20 19 20 18 18 19 19 18 20 21 22 21 21 21 21 20 18 15 18 17 19 15 17 18 17 11 6
28 30 30 31 32 30 27 24 20 22 18 15 18 18 26 20 17 17 15 16 19 20 20 20 21 21 21 21 23 22 20 20 20 20 23 25 24 24 20 18 18 20 20
31 33 31 28 29 24 20 14 23 19 17 14 12 14 14 13 14 16 15 15 17 19 19 18 17 17 17 18 20 22 21 21 22 21 23 23 24 22 21 21 20 22 23
25 31 32 29 25 23 20 17 20 14 12 10 9 9 10 11 11 11 12 15 16 16 16 15 13 15 15 15 17 20 22 25 24 24 24 24 23 22 21 21 20 17 11
30 33 30 25 21 20 16 16 14 13 10 8 9 9 9 10 8 9 11 13 15 15 14 13 12 13 13 12 13 15 18 21 20 21 23 24 23 24 23 26 26 19 14
29 27 25 24 20 15 13 13 12 10 9 9 9 7 8 10 11 12 14 16 18 17 16 15 14 14 15 15 15 15 16 15 16 16 16 19 19 19 21 20 22 26 19
21 21 23 22 19 16 16 14 12 11 11 10 9 8 8 9 10 9 13 18 19 18 16 15 14 13 12 12 13 14 14 16 17 16 16 14 13 11 10 8 10 13 20
19 20 21 19 18 17 16 14 13 12 11 10 9 9 10 9 7 6 7 10 12 14 13 12 12 12 12 14 16 17 17 17 17 15 15 13 10 9 6 6 6 6 7
24 22 20 20 19 17 14 14 16 13 11 10 9 11 11 11 9 7 7 8 10 11 12 12 14 17 20 21 22 21 18 18 17 18 13 10 9 7 7 6 7 8 9
20 19 19 19 19 17 14 13 14 13 11 10 12 13 14 15 13 10 8 8 10 13 17 20 21 23 24 24 23 22 20 18 19 19 15 11 10 10 11 10 11 12 10
22 21 21 20 16 14 13 12 12 14 14 14 13 12 15 15 12 10 8 7 10 14 18 19 19 18 19 20 19 21 19 14 13 13 12 11 12 13 13 12 12 12 13
23 22 18 15 15 14 12 13 16 16 13 11 11 11 13 11 11 9 8 9 12 16 12 13 14 15 17 16 17 15 11 11 10 10 11 11 12 13 11 10 9 10 9
21 18 16 14 11 11 12 12 11 10 10 8 10 12 12 10 9 9 9 9 10 11 12 14 16 18 15 13 13 11 10 10 10 11 11 12 10 10 9 9 10 11 14
19 18 15 12 12 12 10 10 9 8 7 7 7 8 12 12 11 10 10 13 13 11 12 14 16 13 11 12 13 13 12 11 11 10 9 8 8 8 8 9 11 15 17
14 15 14 13 13 11 10 9 7 7 6 6 7 7 8 11 12 11 12 12 13 13 14 15 16 15 14 13 12 10 9 8 7 6 6 6 7 8 9 12 16 18 16
11 14 13 13 13 13 11 9 8 7 5 3 7 8 9 10 9 9 12 13 12 13 14 11 12 12 11 10 9 8 7 7 6 6 6 6 7 9 11 16 18 19 19
10 14 13 16 14 11 11 8 6 5 4 4 5 7 8 10 9 12 12 11 9 8 9 10 10 8 7 5 6 6 6 6 5 6 6 7 8 10 15 18 19 22 22
15 15 17 19 15 13 12 9 7 6 5 4 3 6 9 10 8 9 7 5 5 5 5 5 4 4 4 3 2 3 4 5 5 7 9 10 12 15 17 19 20 21 18
21 21 24 23 16 16 15 11 11 10 8 5 5 7 8 9 8 6 6 7 6 4 3 2 2 3 1 1 2 3 2 5 8 10 12 14 15 19 21 21 18 13 12
30 28 28 23 20 20 16 12 12 11 9 7 7 9 9 8 10 9 8 7 7 6 5 4 3 2 2 4 5 6 8 10 12 13 15 16 17 18 17 14 10 6 8
21 23 21 23 23 19 15 13 11 11 11 9 8 10 11 10 13 11 10 10 10 7 7 7 5 4 3 4 5 7 9 10 10 11 12 12 13 14 12 10 9 5 6
Wind_Direction
203 207 213 215 212 216 223 227 224 217 221 231 241 248 218 216 228 233 238 245 250 251 253 260 253 251 260 248 232 240 247 237 225 268 249 253 248 249 255 268 255 235 227
204 208 212 216 219 222 222 222 212 218 221 228 228 215 209 220 229 243 241 242 249 250 258 261 264 266 268 257 247 246 245 256 248 258 265 254 254 249 261 259 248 237 233
200 206 213 217 219 222 220 220 224 227 230 229 224 227 233 240 241 244 245 246 250 250 260 266 269 263 266 267 267 264 261 260 257 258 268 277 259 242 252 260 242 241 248
200 205 212 216 219 223 225 226 226 229 231 225 231 236 238 241 246 249 251 251 253 259 262 263 268 262 265 267 265 265 271 272 258 255 263 269 269 254 250 252 245 246 252
199 204 212 215 218 222 227 231 234 234 233 241 243 244 245 241 244 248 250 250 252 256 258 260 266 266 264 266 266 262 264 272 263 255 250 256 260 252 244 255 246 254 251
198 202 210 213 217 218 223 228 236 243 249 253 262 262 259 244 247 254 255 253 259 263 265 266 266 266 265 266 265 268 266 263 263 252 255 247 253 251 254 251 248 230 251
200 202 206 211 218 221 224 228 234 240 246 240 236 235 254 257 256 257 260 262 263 264 266 268 272 270 273 274 272 270 265 260 260 262 261 261 263 265 263 255 246 239 236
200 207 211 214 219 223 227 217 243 239 245 249 231 234 247 259 261 259 258 259 265 268 267 267 272 279 277 280 278 273 269 265 260 260 263 268 269 274 276 274 271 259 257
192 203 214 217 222 228 226 216 232 225 229 227 234 240 255 265 265 267 264 266 267 270 270 269 272 279 285 283 280 277 276 273 271 268 266 268 267 266 270 267 254 245 251
198 207 213 211 213 219 224 233 210 204 207 220 248 260 265 271 275 272 267 266 267 269 267 261 263 268 278 281 280 279 277 279 286 280 271 268 266 262 258 260 259 238 226
204 206 207 205 205 209 211 206 199 197 214 226 229 242 260 273 270 259 255 255 255 262 264 267 268 267 275 280 277 275 277 285 284 285 284 281 272 270 265 264 256 249 233
188 192 198 201 201 194 188 186 192 199 206 220 235 250 261 266 279 288 265 252 258 248 250 258 261 267 271 281 283 288 286 279 282 285 286 285 283 282 279 273 268 259 246
182 186 185 188 184 184 183 187 190 197 211 223 239 248 253 263 273 303 308 267 253 259 263 259 264 266 274 282 290 292 287 277 278 275 277 279 271 275 281 292 292 280 267
178 177 179 177 176 182 184 194 196 206 217 230 241 255 247 239 254 269 278 270 261 262 266 267 272 275 279 287 289 289 288 279 270 264 262 269 255 236 245 256 263 260 260
176 179 177 178 176 178 189 202 217 227 241 258 271 247 223 233 246 247 250 260 273 279 284 284 284 283 286 286 286 284 282 276 263 254 242 240 235 247 254 261 263 251 233
174 174 173 173 175 183 196 211 228 246 253 254 255 246 240 245 248 237 248 271 287 290 287 283 285 286 286 288 289 290 286 267 251 233 225 238 252 259 265 265 247 233 226
173 175 178 178 180 190 212 230 241 247 262 262 243 245 235 244 234 230 252 280 301 307 291 284 283 287 289 287 286 291 274 248 247 244 250 256 263 269 254 244 234 225 189
178 179 182 183 201 221 239 240 234 234 240 244 244 244 242 238 227 237 262 286 296 310 298 292 292 298 287 282 283 287 288 276 267 268 270 270 264 249 233 221 210 189 161
177 178 184 197 210 213 207 205 215 221 237 254 257 262 240 234 235 252 277 284 286 285 296 292 290 295 283 284 287 285 280 277 274 270 260 248 239 224 214 202 188 173 155
210 194 185 196 200 196 199 200 223 244 243 253 256 255 245 225 233 253 275 282 279 281 291 289 291 289 288 289 288 280 274 273 266 255 248 231 214 204 192 178 166 150 147
242 209 181 184 200 197 204 210 209 206 200 246 287 282 259 240 249 279 290 290 282 281 292 291 292 289 290 289 282 272 263 258 248 244 227 210 195 183 174 161 152 149 146
293 247 209 199 199 202 201 195 190 203 213 228 252 253 229 223 254 280 291 296 291 293 297 297 295 291 290 286 279 266 251 242 228 207 194 181 171 165 155 149 148 147 146
247 270 236 221 208 197 197 204 218 223 235 247 275 237 229 240 261 279 286 275 277 306 321 315 310 288 280 280 271 272 257 229 201 181 167 162 156 151 150 145 147 154 160
237 254 237 222 208 206 205 211 219 222 228 241 264 256 255 264 266 278 264 268 275 276 319 325 38 59 55 178 129 130 156 159 152 150 150 154 150 146 146 146 145 153 172
226 231 224 219 214 208 208 212 218 224 229 238 268 259 242 250 257 252 248 258 259 255 265 276 304 342 71 111 121 122 129 138 141 142 143 146 146 150 153 155 158 134 166
209 218 224 225 212 210 212 214 221 223 223 241 254 249 238 248 249 244 248 254 251 249 254 253 226 210 186 165 147 139 140 145 148 154 161 165 172 180 188 198 210 238 224